Погода в Апраксино

Россия / Костромская область     57°50′34″N   40°59′04″E
темп.,
°C
ветер,
м/с
пор.,
м/с
влажн.,
%
обл.,
%
осадки,
мм/ч
давл.,
гПа
погр.,
м
9 мая, вс
вс900:00+9вюв51394100 3.8 1004522
03:00+10ююв61293100 5.3 1002606
06:00+9ююв3897100 1.8 1003385
09:00+10зсз4595100 4.1 1004354
12:00+8с5895100 2.5 1007458
15:00+5ссз61194100 3.1 1010542
18:00+6с71389100 1.2 1013846
21:00+6с41283100 1.4 1016641
10 мая, пн
пн1000:00+4ссз41183100 0.0 1019341
03:00+2ссз411874 0.0 1021254
06:00+3ссз4128591 0.0 1024353
09:00+8с59590 0.0 10261064
12:00+12с56440 0.0 10271465
15:00+13с45420 0.0 10271583
18:00+12ссв34550 0.0 1028248
21:00+7св22645 0.0 102910
11 мая, вт
вт1100:00+5всв22695 0.0 103012
03:00+4св22745 0.0 103112
06:00+6всв23745 0.0 1031100
09:00+12всв24565 0.0 1031579
12:00+16всв34445 0.0 10301003
15:00+18в334068 0.0 10301195
18:00+17всв24595 0.0 1029114
21:00+11в33695 0.0 103021
12 мая, ср
ср1200:00+9в33715 0.0 103034
03:00+8в33760 0.0 102944
06:00+10всв37800 0.0 1030164
09:00+17в466676 0.0 1029433
12:00+21вюв5660100 0.0 1028942
15:00+22юв575533 0.0 10271745
18:00+21в356763 0.1 1026170
21:00+16в3578100 0.1 102672
13 мая, чт
чт1300:00+15вюв388454 0.0 1026141
03:00+13вюв3992100 0.0 1025151
06:00+14вюв4108684 0.0 1025304
09:00+18юв5106854 0.0 1025695
12:00+21юв7105496 0.0 10241296
15:00+20юв496538 0.0 1023701
18:00+18вюв5126924 0.0 1022367
21:00+17юв5136994 0.1 1022454